Printer-friendly version
Follow the MPC on Twitter Follow the MPC on Facebook The MPC blog
Minor Planet Center

MPEC 2006-Q68 : 2006 QM111

The following Minor Planet Electronic Circular may be linked-to from your own Web pages, but must not otherwise be redistributed electronically.

A form allowing access to any MPEC is at the bottom of this page.


Read MPEC 2006-Q67 Read MPEC 2006-Q69


M.P.E.C. 2006-Q68                                Issued 2006 Aug. 31, 16:13 UT

     The Minor Planet Electronic Circulars contain information on unusual
         minor planets and routine data on comets.  They are published
   on behalf of Commission 20 of the International Astronomical Union by the
          Minor Planet Center, Smithsonian Astrophysical Observatory,
                          Cambridge, MA 02138, U.S.A.

                  Supported in part by the Brinson Foundation
                  Supported in part by the TABASGO Foundation
             Prepared using the Tamkin Foundation Computer Network

                              MPC@CFA.HARVARD.EDU
          URL http://cfa-www.harvard.edu/iau/mpc.html  ISSN 1523-6714

                                  2006 QM111

Observations:
     K06QB1M* C2006 08 31.53513 22 25 15.09 -22 53 36.9                 EQ068E12
     K06QB1M  C2006 08 31.53559 22 25 16.93 -22 54 39.6                 EQ068E12
     K06QB1M  C2006 08 31.53578 22 25 17.40 -22 55 02.7                 EQ068E12
     K06QB1M  C2006 08 31.53624 22 25 18.90 -22 56 07.9                 EQ068E12
     K06QB1M  C2006 08 31.53643 22 25 19.48 -22 56 32.4                 EQ068E12
     K06QB1M  C2006 08 31.53689 22 25 21.24 -22 57 34.2                 EQ068E12
     K06QB1M  C2006 08 31.53706 22 25 21.79 -22 58 00.9                 EQ068E12
     K06QB1M  C2006 08 31.53752 22 25 23.36 -22 59 03.8                 EQ068E12
     K06QB1M  C2006 08 31.53772 22 25 24.09 -22 59 31.2                 EQ068E12
     K06QB1M  C2006 08 31.53818 22 25 25.72 -23 00 36.4                 EQ068E12
     K06QB1M  C2006 08 31.53885 22 25 27.97 -23 02 05.8                 EQ068E12
     K06QB1M  C2006 08 31.53931 22 25 29.75 -23 03 09.4                 EQ068E12
     K06QB1M  C2006 08 31.53949 22 25 30.36 -23 03 35.6                 EQ068E12
     K06QB1M  C2006 08 31.53995 22 25 31.87 -23 04 39.3                 EQ068E12
     K06QB1M  C2006 08 31.54014 22 25 32.52 -23 05 05.8                 EQ068E12
     K06QB1M  C2006 08 31.54060 22 25 34.21 -23 06 07.7                 EQ068E12
     K06QB1M  C2006 08 31.54078 22 25 34.91 -23 06 36.2                 EQ068E12
     K06QB1M  C2006 08 31.54124 22 25 36.46 -23 07 39.1                 EQ068E12
     K06QB1M  C2006 08 31.54142 22 25 37.16 -23 08 06.6                 EQ068E12
     K06QB1M  C2006 08 31.54188 22 25 38.73 -23 09 10.4                 EQ068E12
     K06QB1M  C2006 08 31.62148 22 31 47.53 -27 03 15.5          16.1 V EQ068E12
     K06QB1M  C2006 08 31.62173 22 31 49.00 -27 04 09.8          16.0 V EQ068E12
     K06QB1M  C2006 08 31.62197 22 31 50.52 -27 05 04.7          16.0 V EQ068E12
     K06QB1M  C2006 08 31.62224 22 31 52.14 -27 06 03.2          16.2 V EQ068E12
     K06QB1M  C2006 08 31.62249 22 31 53.72 -27 07 00.4          16.0 V EQ068E12
     K06QB1M  C2006 08 31.63259 22 32 58.05 -27 45 35.6          16.2 V EQ068E12
     K06QB1M  C2006 08 31.63282 22 32 59.60 -27 46 32.0          16.4 V EQ068E12
     K06QB1M  C2006 08 31.63307 22 33 01.18 -27 47 30.8          16.4 V EQ068E12
     K06QB1M  C2006 08 31.63334 22 33 02.95 -27 48 31.3          17.0 V EQ068E12
     K06QB1M  C2006 08 31.63361 22 33 04.82 -27 49 37.1          16.6 V EQ068E12

Observer details:
E12 Siding Spring Survey.  Observers R. H. McNaught, D. M. Burton.  Measurers
    E. C. Beshore, E. J. Christensen, G. J. Garradd, A. R. Gibbs, A. D. Grauer,
    R. E. Hill, R. A. Kowalski, S. M. Larson, R. H. McNaught.  0.5-m Uppsala
    Schmidt + CCD.

Orbital elements:
2006 QM111                                               Earth MOID = 0.0011 AU
Epoch 2006 Sept. 22.0 TT = JDT 2454000.5                MPC
M 355.41772              (2000.0)            P               Q
n   0.20831733     Peri.  256.54444     +0.60971396     -0.79254775
a   2.8182907      Node   155.87668     +0.73706880     +0.56191017
e   0.7538090      Incl.    1.51620     +0.29151067     +0.23690720
P   4.73           H   27.8           G   0.15           U   5
Residuals in seconds of arc
060831 E12  0.6-  1.6-    060831 E12  0.9-  0.9+    060831 E12  0.1+  0.2+
060831 E12 (3.0+  1.6-)   060831 E12  1.4+  1.1+    060831 E12  0.6-  1.1+
060831 E12  0.4+  1.3+    060831 E12  1.1+  0.0     060831 E12  0.2+  0.8-
060831 E12  0.8-  1.0-    060831 E12  0.4-  0.4+    060831 E12  0.1-  0.6+
060831 E12  1.8-  0.5+    060831 E12  0.6-  0.4+    060831 E12  0.6+  1.1-
060831 E12  0.5+  1.9+    060831 E12 (0.3+  2.8+)   060831 E12  0.3+  0.1+
060831 E12  0.0   1.5-    060831 E12  1.1+  0.4-    060831 E12 (0.5+  1.8-)
060831 E12  0.4-  1.0-    060831 E12  0.0   1.2+    060831 E12  0.6-  1.2-
060831 E12  0.0   0.9-    060831 E12  0.9+  1.0-    060831 E12 (1.0-  2.5+)
060831 E12 (0.4+  2.5-)   060831 E12  0.1-  0.1-    060831 E12  0.1-  1.0+

Ephemeris:
2006 QM111               a,e,i = 2.82, 0.75, 2                   q = 0.6938
Date    TT    R. A. (2000) Decl.     Delta      r     Elong.  Phase     V
2006 08 23.0  22 02.12   -09 19.6    0.101    1.112   177.4     2.3    23.3
2006 08 24.0  22 02.20   -09 23.9    0.0891   1.100   177.2     2.6    23.0
2006 08 25.0  22 02.31   -09 29.7    0.0777   1.089   176.7     3.1    22.7
2006 08 26.0  22 02.48   -09 37.5    0.0664   1.077   176.0     3.7    22.4
2006 08 27.0  22 02.72   -09 48.5    0.0551   1.065   175.3     4.5    22.0
2006 08 28.0  22 03.12   -10 05.2    0.0438   1.054   174.5     5.3    21.6
2006 08 29.0  22 03.82   -10 33.4    0.0326   1.042   173.7     6.1    20.9
2006 08 30.0  22 05.31   -11 31.2    0.0213   1.031   172.9     7.0    20.0

2006 08 30.1  22 05.56   -11 40.5    0.0202   1.030   172.8     7.1    19.9
2006 08 30.2  22 05.83   -11 50.9    0.0191   1.029   172.7     7.2    19.8
2006 08 30.3  22 06.14   -12 02.5    0.0180   1.028   172.6     7.3    19.7
2006 08 30.4  22 06.49   -12 15.7    0.0168   1.026   172.5     7.4    19.5
2006 08 30.5  22 06.89   -12 30.9    0.0157   1.025   172.4     7.5    19.4
2006 08 30.6  22 07.35   -12 48.3    0.0146   1.024   172.2     7.7    19.2
2006 08 30.7  22 07.90   -13 08.6    0.0135   1.023   172.1     7.8    19.1
2006 08 30.8  22 08.54   -13 32.5    0.0124   1.022   171.9     8.0    18.9
2006 08 30.9  22 09.32   -14 01.3    0.0112   1.021   171.7     8.2    18.7
2006 08 31.0  22 10.27   -14 36.3    0.0101   1.020   171.4     8.5    18.5
2006 08 31.1  22 11.46   -15 20.0    0.00901  1.018   171.0     8.9    18.2
2006 08 31.2  22 13.01   -16 15.9    0.00790  1.017   170.5     9.5    18.0
2006 08 31.3  22 15.08   -17 30.2    0.00679  1.016   169.7    10.3    17.7
2006 08 31.4  22 18.01   -19 13.2    0.00568  1.015   168.4    11.5    17.3
2006 08 31.5  22 22.47   -21 45.3    0.00459  1.014   166.3    13.6    16.9
2006 08 31.6  22 30.04   -25 50.8    0.00351  1.013   162.6    17.3    16.5
2006 08 31.7  22 45.72   -33 23.8    0.00247  1.012   155.1    24.8    15.9
2006 08 31.8  23 35.95   -50 04.7    0.00155  1.010   136.8    43.2    15.4
2006 08 31.9  05 50.09   -66 04.8    0.00111  1.009    90.8    89.2    16.2
2006 09 01.0  08 54.26   -31 05.1    0.00161  1.008    46.9   133.0    19.9
2006 09 01.1  09 24.43   -14 44.1    0.00254  1.007    29.8   150.1    23.3
2006 09 01.2  09 36.07   -07 25.3    0.00359  1.006    22.5   157.4    25.7
2006 09 01.3  09 42.21   -03 26.3    0.00467  1.005    18.8   161.1    27.5
2006 09 01.4  09 46.00   -00 57.5    0.00577  1.004    16.6   163.3    28.9
2006 09 01.5  09 48.57   +00 43.5    0.00687  1.003    15.2   164.7    30.0
2006 09 01.6  09 50.43   +01 56.6    0.00798  1.001    14.3   165.6    30.8
2006 09 01.7  09 51.84   +02 51.8    0.00910  1.000    13.7   166.2    31.4
2006 09 01.8  09 52.94   +03 34.9    0.0102   0.999    13.2   166.6    32.0
2006 09 01.9  09 53.83   +04 09.5    0.0113   0.998    12.9   167.0    32.4
2006 09 02.0  09 54.55   +04 38.0    0.0124   0.997    12.7   167.2    32.8

Timothy B. Spahr             (C) Copyright 2006 MPC           M.P.E.C. 2006-Q68

Read MPEC 2006-Q67 Read MPEC 2006-Q69


MPEC number:

Enter an MPEC number in one of the following forms:

  • 1997-B01 (the full form)
  • J97B01 (the packed version of the full form)
  • B01 (the abbreviated form)

Valid HTML 4.01!